sat.trackr.live / text

‹ back to catalog

AETHER-4

NORAD 67375 · 2026-004N

PAYLOAD ACTIVE UNKNOWN

§ Identity

Operator
Country
CA
Launch date
2026-01-11
Launch site
AFWTR
Launch vehicle
Mass (kg)
RCS (m²)

External: N2YO · Heavens-Above · Gunter

§ Orbital elements

Epoch: 2026-05-25T05:26:43.995840Z

Period
96.76 min
Inclination
97.8036°
Eccentricity
0.0004700
Mean motion
14.88161586 rev/d
Perigee alt
600.4 km
Apogee alt
607.0 km
Semi-major
6,981.8 km
B*
7.6870e-5
RAAN
144.2742°
Arg perigee
179.9085°
Mean anomaly
180.2134°
Rev number
1,988

§ Raw data

AETHER-41 67375U 26004N   26145.22689810  .00000654  00000+0  76870-4 0  99902 67375  97.8036 144.2742 0004700 179.9085 180.2134 14.88161586 19880

JSON: /api/v1/satellites/67375 · /tle

For live sub-satellite position, see the globe view (requires WebGL).

§ Visibility from observer

Set your observer location to see the next 7 days of passes ≥ 10°. The values pass through the URL so the page stays shareable.

No JS? Fill the form by hand. The geolocation button needs JavaScript.